| time (UTC) | temp C | wind direction | speed KPH | gust KPH | rain 1hr cm | rain 24hr cm | rain mn cm | humidity % | barometer mb |
| 20260505041506 | 15 | 235 | 1.6 | 4.8 | 0.00 | 0.79 | 0.79 | 69 | 1001.4 |
| 20260505041006 | 16 | 228 | 1.6 | 6.4 | 0.00 | 0.79 | 0.79 | 70 | 1001.4 |
| 20260505040506 | 16 | 227 | 1.6 | 6.4 | 0.00 | 0.79 | 0.79 | 69 | 1001.4 |
| 20260505035506 | 16 | 213 | 0.0 | 4.8 | 0.03 | 0.79 | 0.79 | 69 | 1001.3 |
| 20260505035005 | 16 | 213 | 0.0 | 4.8 | 0.03 | 0.79 | 0.79 | 70 | 1001.4 |
| 20260505034506 | 16 | 212 | 0.0 | 3.2 | 0.03 | 0.79 | 0.79 | 70 | 1001.5 |
| 20260505034006 | 16 | 212 | 1.6 | 6.4 | 0.03 | 0.79 | 0.79 | 70 | 1001.5 |
| 20260505033505 | 16 | 212 | 1.6 | 6.4 | 0.03 | 0.79 | 0.79 | 70 | 1001.3 |
| 20260505033006 | 16 | 211 | 1.6 | 6.4 | 0.03 | 0.79 | 0.79 | 70 | 1001.3 |
| 20260505032505 | 16 | 212 | 1.6 | 8.0 | 0.03 | 0.79 | 0.79 | 70 | 1001.1 |
| 20260505032006 | 16 | 212 | 0.0 | 4.8 | 0.03 | 0.79 | 0.79 | 71 | 1000.8 |
| 20260505031506 | 16 | 212 | 1.6 | 4.8 | 0.03 | 0.79 | 0.79 | 71 | 1000.8 |
| 20260505031006 | 16 | 212 | 1.6 | 6.4 | 0.03 | 0.79 | 0.79 | 72 | 1000.7 |
| 20260505030505 | 16 | 210 | 0.0 | 6.4 | 0.05 | 0.79 | 0.79 | 72 | 1000.7 |
| 20260505030010 | 16 | 202 | 0.0 | 6.4 | 0.05 | 0.79 | 0.79 | 72 | 1000.8 |
| 20260505025506 | 16 | 276 | 1.6 | 6.4 | 0.03 | 0.76 | 0.76 | 72 | 1001.0 |
| 20260505025006 | 16 | 276 | 3.2 | 11.3 | 0.03 | 0.76 | 0.76 | 73 | 1001.2 |
| 20260505024505 | 16 | 223 | 1.6 | 11.3 | 0.05 | 0.76 | 0.76 | 71 | 1001.1 |
| 20260505024006 | 16 | 209 | 1.6 | 4.8 | 0.05 | 0.76 | 0.76 | 72 | 1000.9 |
| 20260505023505 | 16 | 236 | 1.6 | 4.8 | 0.05 | 0.76 | 0.76 | 72 | 1000.8 |
| 20260505023005 | 16 | 232 | 0.0 | 4.8 | 0.08 | 0.76 | 0.76 | 72 | 1000.3 |
| 20260505022506 | 16 | 235 | 0.0 | 6.4 | 0.08 | 0.76 | 0.76 | 73 | 1000.2 |
| 20260505022012 | 16 | 235 | 0.0 | 6.4 | 0.10 | 0.76 | 0.76 | 72 | 1000.1 |
| 20260505021506 | 16 | 215 | 0.0 | 4.8 | 0.10 | 0.76 | 0.76 | 72 | 999.9 |
| 20260505021009 | 16 | 215 | 0.0 | 4.8 | 0.10 | 0.76 | 0.76 | 72 | 999.8 |
| 20260505020505 | 16 | 229 | 0.0 | 4.8 | 0.10 | 0.74 | 0.74 | 74 | 999.6 |
| 20260505020008 | 16 | 229 | 1.6 | 6.4 | 0.13 | 0.74 | 0.74 | 73 | 999.5 |
| 20260505015505 | 16 | 230 | 1.6 | 8.0 | 0.13 | 0.74 | 0.74 | 73 | 999.5 |
| 20260505014505 | 16 | 234 | 1.6 | 8.0 | 0.15 | 0.71 | 0.71 | 74 | 999.5 |
| 20260505014012 | 16 | 215 | 1.6 | 8.0 | 0.18 | 0.71 | 0.71 | 74 | 999.4 |
| 20260505013504 | 16 | 220 | 3.2 | 11.3 | 0.18 | 0.71 | 0.71 | 75 | 999.3 |
| 20260505013010 | 16 | 238 | 3.2 | 11.3 | 0.18 | 0.69 | 0.69 | 74 | 999.3 |
| 20260505012505 | 16 | 221 | 3.2 | 11.3 | 0.20 | 0.69 | 0.69 | 75 | 999.3 |
| 20260505012007 | 16 | 228 | 3.2 | 12.9 | 0.20 | 0.66 | 0.66 | 75 | 999.3 |
| 20260505011509 | 16 | 247 | 1.6 | 12.9 | 0.23 | 0.66 | 0.66 | 75 | 999.1 |
| 20260505011018 | 16 | 210 | 1.6 | 14.5 | 0.25 | 0.64 | 0.64 | 77 | 998.8 |
| 20260505010505 | 16 | 236 | 1.6 | 12.9 | 0.28 | 0.64 | 0.64 | 78 | 998.8 |
| 20260505010009 | 16 | 197 | 1.6 | 6.4 | 0.28 | 0.61 | 0.61 | 79 | 998.7 |
| 20260505005506 | 16 | 225 | 1.6 | 12.9 | 0.30 | 0.61 | 0.61 | 79 | 998.9 |
| 20260505005014 | 16 | 232 | 3.2 | 12.9 | 0.30 | 0.58 | 0.58 | 80 | 998.8 |
| 20260505004506 | 16 | 213 | 1.6 | 12.9 | 0.30 | 0.56 | 0.56 | 81 | 998.8 |
| 20260505003014 | 16 | 198 | 0.0 | 4.8 | 0.30 | 0.51 | 0.51 | 84 | 998.1 |
| 20260505002006 | 16 | 198 | 1.6 | 4.8 | 0.33 | 0.46 | 0.46 | 82 | 998.2 |
| 20260505001505 | 16 | 198 | 1.6 | 4.8 | 0.38 | 0.43 | 0.43 | 82 | 998.2 |
| 20260505001012 | 15 | 202 | 0.0 | 6.4 | 0.38 | 0.38 | 0.38 | 84 | 998.4 |
| 20260505000009 | 15 | 53 | 0.0 | 1.6 | 0.33 | 0.33 | 0.33 | 89 | 998.5 |
| 20260504235506 | 15 | 49 | 0.0 | 0.0 | 0.30 | 0.30 | 0.30 | 90 | 998.2 |
| 20260504235009 | 15 | 49 | 0.0 | 0.0 | 0.28 | 0.28 | 0.28 | 90 | 998.0 |
| 20260504234505 | 15 | 49 | 0.0 | 1.6 | 0.25 | 0.25 | 0.25 | 89 | 998.0 |
| 20260504234007 | 15 | 49 | 0.0 | 1.6 | 0.25 | 0.25 | 0.25 | 88 | 998.1 |
| 20260504233505 | 15 | 49 | 0.0 | 1.6 | 0.23 | 0.23 | 0.23 | 86 | 998.3 |
| 20260504233006 | 15 | 49 | 0.0 | 4.8 | 0.20 | 0.20 | 0.20 | 83 | 998.4 |
| 20260504232506 | 15 | 49 | 3.2 | 9.7 | 0.18 | 0.18 | 0.18 | 79 | 998.6 |
| 20260504232005 | 17 | 46 | 8.0 | 24.1 | 0.13 | 0.13 | 0.13 | 74 | 999.2 |
| 20260504231505 | 19 | 306 | 8.0 | 29.0 | 0.05 | 0.05 | 0.05 | 67 | 999.4 |
| 20260504231006 | 21 | 282 | 1.6 | 20.9 | 0.00 | 0.00 | 0.00 | 55 | 998.4 |
| 20260504230506 | 21 | 270 | 1.6 | 8.0 | 0.00 | 0.00 | 0.00 | 53 | 997.9 |
| 20260504225505 | 22 | 240 | 1.6 | 6.4 | 0.00 | 0.00 | 0.00 | 50 | 997.7 |
| 20260504225006 | 22 | 208 | 1.6 | 9.7 | 0.00 | 0.00 | 0.00 | 50 | 997.7 |
| 20260504224505 | 22 | 234 | 3.2 | 14.5 | 0.00 | 0.00 | 0.00 | 50 | 997.9 |
| 20260504224007 | 22 | 232 | 3.2 | 9.7 | 0.00 | 0.00 | 0.00 | 48 | 998.0 |
| 20260504223006 | 24 | 234 | 4.8 | 20.9 | 0.00 | 0.00 | 0.00 | 44 | 998.2 |
| 20260504222505 | 25 | 160 | 4.8 | 22.5 | 0.00 | 0.00 | 0.00 | 42 | 998.1 |
| 20260504222006 | 25 | 203 | 3.2 | 16.1 | 0.00 | 0.00 | 0.00 | 42 | 998.1 |
| 20260504221505 | 24 | 238 | 4.8 | 11.3 | 0.00 | 0.00 | 0.00 | 41 | 998.1 |
| 20260504220008 | 26 | 196 | 4.8 | 12.9 | 0.00 | 0.00 | 0.00 | 37 | 997.9 |
| 20260504215505 | 26 | 229 | 3.2 | 16.1 | 0.00 | 0.00 | 0.00 | 36 | 997.9 |
| 20260504215006 | 26 | 246 | 1.6 | 8.0 | 0.00 | 0.00 | 0.00 | 36 | 997.9 |
| 20260504214505 | 27 | 212 | 3.2 | 22.5 | 0.00 | 0.00 | 0.00 | 35 | 998.0 |
| 20260504214006 | 27 | 197 | 4.8 | 22.5 | 0.00 | 0.00 | 0.00 | 35 | 998.1 |
| 20260504213504 | 27 | 218 | 4.8 | 17.7 | 0.00 | 0.00 | 0.00 | 35 | 998.1 |
| 20260504213008 | 27 | 246 | 4.8 | 17.7 | 0.00 | 0.00 | 0.00 | 35 | 998.1 |
| 20260504212507 | 26 | 240 | 4.8 | 19.3 | 0.00 | 0.00 | 0.00 | 35 | 998.2 |
| 20260504212009 | 26 | 228 | 4.8 | 19.3 | 0.00 | 0.00 | 0.00 | 35 | 998.3 |
| 20260504211506 | 26 | 205 | 4.8 | 17.7 | 0.00 | 0.00 | 0.00 | 38 | 998.4 |
| 20260504211008 | 26 | 279 | 4.8 | 17.7 | 0.00 | 0.00 | 0.00 | 34 | 998.4 |
| 20260504210005 | 26 | 262 | 4.8 | 24.1 | 0.00 | 0.00 | 0.00 | 35 | 998.4 |
| 20260504205505 | 26 | 248 | 6.4 | 24.1 | 0.00 | 0.00 | 0.00 | 36 | 998.6 |
| 20260504205007 | 26 | 237 | 6.4 | 17.7 | 0.00 | 0.00 | 0.00 | 37 | 998.4 |
| 20260504204505 | 26 | 244 | 4.8 | 19.3 | 0.00 | 0.00 | 0.00 | 37 | 998.6 |
| 20260504204005 | 25 | 286 | 4.8 | 14.5 | 0.00 | 0.00 | 0.00 | 36 | 998.6 |
| 20260504203504 | 25 | 232 | 4.8 | 14.5 | 0.00 | 0.00 | 0.00 | 35 | 998.6 |
| 20260504203006 | 26 | 264 | 4.8 | 14.5 | 0.00 | 0.00 | 0.00 | 34 | 998.6 |
| 20260504202008 | 27 | 310 | 4.8 | 16.1 | 0.00 | 0.00 | 0.00 | 37 | 998.7 |
| 20260504201507 | 27 | 174 | 3.2 | 16.1 | 0.00 | 0.00 | 0.00 | 36 | 998.7 |
| 20260504201010 | 26 | 245 | 3.2 | 12.9 | 0.00 | 0.00 | 0.00 | 38 | 999.1 |
| 20260504200507 | 26 | 170 | 4.8 | 16.1 | 0.00 | 0.00 | 0.00 | 37 | 999.1 |
| 20260504200012 | 26 | 217 | 4.8 | 16.1 | 0.00 | 0.00 | 0.00 | 38 | 999.2 |
| 20260504195505 | 26 | 242 | 3.2 | 14.5 | 0.00 | 0.00 | 0.00 | 36 | 999.3 |
| 20260504195009 | 26 | 198 | 3.2 | 14.5 | 0.00 | 0.00 | 0.00 | 40 | 999.3 |
| 20260504194508 | 25 | 244 | 4.8 | 14.5 | 0.00 | 0.00 | 0.00 | 41 | 999.3 |
| 20260504194005 | 25 | 227 | 4.8 | 14.5 | 0.00 | 0.00 | 0.00 | 37 | 999.5 |
| 20260504193507 | 25 | 195 | 4.8 | 14.5 | 0.00 | 0.00 | 0.00 | 37 | 999.5 |
| 20260504193009 | 25 | 255 | 4.8 | 17.7 | 0.00 | 0.00 | 0.00 | 37 | 999.6 |
| 20260504192507 | 25 | 184 | 6.4 | 17.7 | 0.00 | 0.00 | 0.00 | 35 | 999.6 |
| 20260504192007 | 25 | 203 | 6.4 | 20.9 | 0.00 | 0.00 | 0.00 | 35 | 999.8 |
| 20260504191506 | 25 | 270 | 4.8 | 20.9 | 0.00 | 0.00 | 0.00 | 36 | 999.7 |
| 20260504191010 | 25 | 203 | 4.8 | 14.5 | 0.00 | 0.00 | 0.00 | 33 | 999.7 |
| 20260504190506 | 25 | 252 | 6.4 | 29.0 | 0.00 | 0.00 | 0.00 | 34 | 999.8 |
| 20260504190010 | 25 | 188 | 4.8 | 29.0 | 0.00 | 0.00 | 0.00 | 33 | 999.9 |
| 20260504185505 | 25 | 267 | 4.8 | 17.7 | 0.00 | 0.00 | 0.00 | 33 | 1000.0 |
| 20260504185006 | 25 | 185 | 6.4 | 16.1 | 0.00 | 0.00 | 0.00 | 33 | 999.8 |
| 20260504184506 | 25 | 245 | 4.8 | 16.1 | 0.00 | 0.00 | 0.00 | 32 | 999.9 |
| 20260504184008 | 25 | 198 | 4.8 | 14.5 | 0.00 | 0.00 | 0.00 | 33 | 999.8 |
| 20260504183506 | 25 | 261 | 3.2 | 11.3 | 0.00 | 0.00 | 0.00 | 36 | 999.7 |
| 20260504183006 | 25 | 210 | 3.2 | 11.3 | 0.00 | 0.00 | 0.00 | 34 | 999.8 |
| 20260504182507 | 25 | 93 | 3.2 | 14.5 | 0.00 | 0.00 | 0.00 | 35 | 999.9 |
| 20260504182007 | 25 | 277 | 3.2 | 14.5 | 0.00 | 0.00 | 0.00 | 37 | 1000.0 |
| 20260504181506 | 24 | 263 | 3.2 | 11.3 | 0.00 | 0.00 | 0.00 | 35 | 1000.1 |
| 20260504181008 | 24 | 264 | 3.2 | 12.9 | 0.00 | 0.00 | 0.00 | 36 | 1000.3 |
| 20260504180507 | 24 | 207 | 3.2 | 12.9 | 0.00 | 0.00 | 0.00 | 36 | 1000.4 |
| 20260504180008 | 23 | 203 | 4.8 | 19.3 | 0.00 | 0.00 | 0.00 | 39 | 1000.4 |
| 20260504175505 | 23 | 253 | 4.8 | 14.5 | 0.00 | 0.00 | 0.00 | 37 | 1000.5 |
| 20260504174506 | 23 | 202 | 3.2 | 14.5 | 0.00 | 0.00 | 0.00 | 37 | 1000.6 |
| 20260504174007 | 23 | 212 | 4.8 | 14.5 | 0.00 | 0.00 | 0.00 | 37 | 1000.7 |
| 20260504173006 | 23 | 202 | 3.2 | 12.9 | 0.00 | 0.00 | 0.00 | 38 | 1000.8 |
| 20260504172506 | 23 | 246 | 3.2 | 12.9 | 0.00 | 0.00 | 0.00 | 38 | 1000.8 |
| 20260504171005 | 23 | 209 | 3.2 | 11.3 | 0.00 | 0.00 | 0.00 | 39 | 1001.1 |
| 20260504170506 | 23 | 229 | 3.2 | 12.9 | 0.00 | 0.00 | 0.00 | 41 | 1001.1 |
| 20260504151015 | 20 | 208 | 3.2 | 11.3 | 0.00 | 0.00 | 0.00 | 46 | 1002.5 |
| 20260504150505 | 20 | 232 | 1.6 | 11.3 | 0.00 | 0.00 | 0.00 | 47 | 1002.4 |
| 20260504141005 | 16 | 195 | 1.6 | 6.4 | 0.00 | 0.00 | 0.00 | 57 | 1003.0 |
| 20260504140506 | 16 | 210 | 1.6 | 6.4 | 0.00 | 0.00 | 0.00 | 59 | 1003.1 |
| 20260504130505 | 12 | 223 | 1.6 | 8.0 | 0.00 | 0.00 | 0.00 | 69 | 1003.7 |
| 20260504110505 | 8 | 216 | 0.0 | 1.6 | 0.00 | 0.00 | 0.00 | 81 | 1003.8 |
| 20260504100504 | 8 | 231 | 0.0 | 1.6 | 0.00 | 0.00 | 0.00 | 79 | 1003.8 |
| 20260504082006 | 10 | 231 | 0.0 | 0.0 | 0.00 | 0.00 | 0.00 | 75 | 1004.0 |
| 20260504081506 | 10 | 231 | 0.0 | 0.0 | 0.00 | 0.00 | 0.00 | 75 | 1003.8 |
| 20260504081006 | 10 | 231 | 0.0 | 0.0 | 0.00 | 0.00 | 0.00 | 75 | 1003.8 |
| 20260504080504 | 10 | 231 | 0.0 | 0.0 | 0.00 | 0.00 | 0.00 | 74 | 1003.8 |
| 20260504050504 | 13 | 221 | 1.6 | 9.7 | 0.00 | 0.00 | 0.00 | 66 | 1005.5 |
| 20260504045507 | 13 | 227 | 0.0 | 6.4 | 0.00 | 0.00 | 0.00 | 66 | 1005.6 |
| 20260504045006 | 13 | 259 | 1.6 | 8.0 | 0.00 | 0.00 | 0.00 | 65 | 1005.5 |
| 20260504044505 | 13 | 215 | 1.6 | 8.0 | 0.00 | 0.00 | 0.00 | 65 | 1005.5 |
| 20260504044005 | 13 | 214 | 1.6 | 12.9 | 0.00 | 0.00 | 0.00 | 65 | 1005.5 |
| 20260504043505 | 13 | 230 | 1.6 | 12.9 | 0.00 | 0.00 | 0.00 | 65 | 1005.5 |
| 20260504042006 | 13 | 241 | 1.6 | 6.4 | 0.00 | 0.00 | 0.00 | 64 | 1005.6 |